Terminal Aerodrome Forecast
Issued by NWS New Orleans/Baton Rouge, LA

Home | Current Version | Previous Version | Text Only | Print | Product List | Glossary On
Versions: 1 2 3 4 5 6 7 8 9 10 11 12
000
FTUS44 KLIX 281130
TAFBTR
TAF
KBTR 281130Z 2812/2912 VRB02KT P6SM SKC
     FM281500 08005KT P6SM FEW060 SCT250
     FM282300 18003KT P6SM SKC=

USA.gov is the U.S. government's official web portal to all federal, state and local government web resources and services.